loading
|
DECAYED
Showing default

BUCCANEER RMM, 43014 (Decayed)

Orbit data source: Space-Track

BUCCANEER RMM, 43014 was an Australian payload satellite in LEO that was launched on Sat, 18 Nov 2017 UTC via a DELTA 7920-10C launch vehicle from the Air Force Western Test Range (AFWTR). Payloads include a variety of satellites, spacecraft, and rockets equipped with specific instruments for various scientific and technological missions. These include communications satellites like Starlink; space stations such as the ISS; scientific satellites like the Hubble; Earth observation satellites from companies like Planet Labs, Umbra, and HawkEye 360; GPS; miniature CubeSats for education and research; and military/defense satellites.

Next visibility unknown
Next conjunction unknown
No 3D visualization available: RSO Decayed
BUCCANEER RMM details
Identifier
43014, 2017-073B
Orbit
Decayed
Last TLE update1 week ago
Origin
Flag of AUUNSWC/DSTO (AU / AUS)
ManufacturerU. NSW
MissionDecayed Amateur Technology
Bus & MotorCUBESAT 3U, Unknown motor
Mass4 kg wet, 4 kg dry
Launch date (UTC)
2017-11-18 (7 years ago)
Launch vehicle
DELTA 7920-10C
Launch site
Air Force Western Test Range (AFWTR)
Object type
Payload
Rocket body
Debris
Shape & HBRBox + 2 Pan + 1 Ant, 3.2 m
Radar Cross Section0.235 m², Medium (>0.1 m² and < 1m²)

Expand to show TLE details & history

TLE from 1 week ago
0 BUCCANEER RMM
1 43014U 17073B   24278.17140040  .19254492  26913-5  69830-3 0  9991
2 43014  97.5302 175.5823 0013399 193.6636 166.4304 16.42982460373739
Epoch: 2024-10-04T04:06Z
Definitive object data (Epoch: 2024-10-04T04:06:48.994Z)
Latitude-0.00002°
Longitude100.53227°
Altitude169.648 km
Speed7.799 km/s
True Right ascension11h 42m 19s
True Declination0° 00' 00"
Sunlit
Object was in daylight at TLE epoch
Predictive object data (real-time)
LatitudeUnknown
LongitudeUnknown
AltitudeUnknown
SpeedUnknown
Apparent Right ascensionUnknown
Apparent DeclinationUnknown
SunlitUnknown
Predictive observer data (real-time)
Local Sidereal Time09:11:52
AzimuthUnknown
ElevationUnknown
Doppler factorUnknown
Orbital elements
Apogee163.444 km
Perigee145.937 km
Semi-major axis6,532.827 km
Eccentricity0.0013399
Inclination97.5302°
RAAN175.5823°
Arg. of periapsis193.6636°
True anomaly166.46637°
Mean anomaly166.4304°
Eccentric anomaly166.44839°
Mean motion4.11047 °/min
BSTAR0.0006983
Period87.58 mins
No data available
No data available

BUCCANEER RMM Visibility forecast

Observer location: 39.9160978°, -105.1181434

This satellite is decayed
Span
Click to sort rows by Start time (UTC) header in descending order
Start Az.
Max El. time (UTC)
Max El. Az.
Max El.
End time (UTC)
End Az.